Location: Brunembert
(50.7122°N, 1.8935°E)
Time: 10:06:44
(UTC+00:00)

Cosmos 921 Rocket - Pass Details

Date: 22 April 2021
Orbit: 572 x 631 km, 75.8° (Epoch: 16 May)

Event Time Altitude Azimuth Distance (km) Brightness Sun altitude
Rises 22:42:56 0° 332° (NNW) 2,902 7.8 -25.1°
Reaches altitude 10° 22:45:20 10° 324° (NW) 1,982 6.6 -25.2°
Enters shadow 22:49:08 35° 265° (W) 989 4.1 -25.3°
